[[[{"header":{"parameterUnit":"kt","parameterCategory":2,"dx":1,"dy":1,"la1":30.253999710083008,"la2":30.299108505249023,"lo1":-89.0895004272461,"lo2":-89.04439544677734,"nx":28,"ny":28,"refTime":"2022-10-27T21:00:00:Z","depth":"0","parameterNumber":2,"parameterNumberName":"U-component_of_CURRENTS"},"data":[-0.4007,-0.3908,-0.393,-0.3733,-0.3744,-0.3573,-0.3519,-0.3421,-0.3401,-0.3211,-0.317,-0.3233,-0.3284,-0.347,-0.3295,-0.3146,-0.309,-0.295,-0.3033,-0.3306,-0.3356,-0.3404,-0.3369,-0.2937,-0.2937,-0.2616,-0.2614,-0.2612,-0.4174,-0.4188,-0.42,-0.422,-0.4163,-0.4308,-0.434,-0.4233,-0.4119,-0.4175,-0.408,-0.3946,-0.3713,-0.3693,-0.3504,-0.3347,-0.3282,-0.3285,-0.3292,-0.3238,-0.3522,-0.3475,-0.3058,-0.3058,-0.3058,-0.3058,-0.3059,-0.3059,-0.4464,-0.4461,-0.4513,-0.4538,-0.4606,-0.4618,-0.4572,-0.4681,-0.4688,-0.4642,-0.4791,-0.4615,-0.4532,-0.42,-0.4084,-0.3852,-0.3937,-0.3732,-0.3801,-0.3824,-0.3683,-0.3989,-0.3688,-0.3691,-0.3693,-0.3696,-0.3698,0,-0.4674,-0.4732,-0.4771,-0.4839,-0.4886,-0.4955,-0.5033,-0.5074,-0.526,-0.5283,-0.5252,-0.519,-0.504,-0.4749,-0.4547,-0.4395,-0.4407,-0.4378,-0.4402,-0.4108,-0.4072,-0.3941,-0.4379,-0.4161,-0.4167,-0.4171,-0.4174,-0.4176,-0.486,-0.4886,-0.5043,-0.5059,-0.5115,-0.5197,-0.5244,-0.5437,-0.5468,-0.5595,-0.5565,-0.5537,-0.5419,-0.5201,-0.5026,-0.4811,-0.4806,-0.4519,-0.4501,-0.4481,-0.4497,-0.4511,-0.4428,-0.4236,-0.4229,-0.4223,-0.4217,0,-0.4931,-0.5054,-0.5125,-0.5284,-0.5325,-0.5353,-0.5496,-0.5527,-0.565,-0.5665,-0.5679,-0.5741,-0.562,-0.5554,-0.5416,-0.5301,-0.5032,-0.5038,-0.4849,-0.4773,-0.4535,-0.4584,-0.4384,-0.4264,-0.4765,-0.476,-0.4757,0,-0.5074,-0.5117,-0.5279,-0.5308,-0.5375,-0.5501,-0.5556,-0.5627,-0.572,-0.5732,-0.5794,-0.5769,-0.5739,-0.5654,-0.5553,-0.5328,-0.5399,-0.5169,-0.5113,-0.4956,-0.4929,-0.4848,-0.4883,-0.5303,-0.5304,-0.5305,-0.5306,0,-0.51,-0.5257,-0.5321,-0.5369,-0.5525,-0.5559,-0.5622,-0.57,-0.5738,-0.5791,-0.5801,-0.5782,-0.5743,-0.566,-0.5539,-0.555,-0.5409,-0.5401,-0.5171,-0.5159,-0.4919,-0.4886,-0.4827,-0.5307,-0.5308,-0.5308,-0.5308,0,-0.5195,-0.5272,-0.5369,-0.5494,-0.552,-0.5579,-0.5648,-0.5711,-0.5762,-0.5774,-0.5757,-0.573,-0.5712,-0.5663,-0.5559,-0.5587,-0.5497,-0.5441,-0.5434,-0.5244,-0.5177,-0.4876,-0.4837,-0.4819,-0.5321,-0.5322,-0.5322,0,-0.518,-0.5295,-0.5362,-0.5453,-0.5505,-0.5556,-0.563,-0.5672,-0.5681,-0.5702,-0.5664,-0.5664,-0.5618,-0.5602,-0.5581,-0.5522,-0.5483,-0.5529,-0.5343,-0.5337,-0.519,-0.5213,-0.5008,-0.4866,-0.5332,-0.5331,-0.5331,0,-0.5152,-0.5291,-0.5294,-0.5336,-0.5429,-0.546,-0.5536,-0.558,-0.5601,-0.5601,-0.5614,-0.5614,-0.5564,-0.555,-0.5517,-0.5499,-0.5493,-0.5447,-0.5442,-0.5384,-0.5392,-0.5243,-0.5222,-0.5467,-0.5467,-0.5467,-0.5339,0,-0.5197,-0.5245,-0.5275,-0.5345,-0.5387,-0.5431,-0.5474,-0.5496,-0.5483,-0.5484,-0.5487,-0.5451,-0.5423,-0.5438,-0.5414,-0.5435,-0.5388,-0.5361,-0.5293,-0.5358,-0.5292,-0.5287,-0.5318,-0.5316,-0.5314,-0.5313,0,0,-0.5131,-0.5185,-0.5201,-0.5262,-0.5292,-0.5292,-0.5344,-0.5364,-0.5372,-0.5367,-0.5338,-0.5315,-0.5291,-0.5306,-0.5338,-0.5326,-0.5279,-0.5302,-0.5337,-0.534,-0.5343,-0.5283,-0.528,-0.5309,-0.5308,-0.5308,-0.5307,0,-0.5133,-0.5147,-0.5183,-0.5223,-0.5262,-0.5273,-0.5288,-0.5306,-0.5298,-0.5322,-0.5269,-0.5258,-0.5247,-0.5228,-0.5218,-0.5297,-0.5215,-0.5301,-0.5359,-0.5322,-0.5328,-0.5332,-0.5276,-0.5275,-0.5302,-0.5303,-0.5303,0,-0.5102,-0.5128,-0.5139,-0.5191,-0.5198,-0.5249,-0.5202,-0.523,-0.5262,-0.5174,-0.5187,-0.5156,-0.512,-0.514,-0.5143,-0.5109,-0.5141,-0.5149,-0.5159,-0.5149,-0.5105,-0.5113,-0.5121,-0.5024,-0.5023,-0.5022,0,0,-0.5101,-0.5127,-0.5162,-0.5191,-0.5207,-0.5205,-0.5215,-0.5205,-0.5194,-0.518,-0.5145,-0.511,-0.5104,-0.509,-0.5075,-0.5094,-0.5038,-0.5119,-0.5132,-0.5143,-0.5139,-0.5099,-0.5108,-0.502,-0.502,-0.502,0,0,-0.5091,-0.5126,-0.5118,-0.5158,-0.5185,-0.5192,-0.5201,-0.5188,-0.5165,-0.5141,-0.5084,-0.507,-0.5081,-0.5045,-0.5021,-0.506,-0.5002,-0.5006,-0.5088,-0.5103,-0.5116,-0.5115,-0.4953,0,0,0,0,0,-0.5098,-0.5131,-0.5124,-0.5132,-0.5159,-0.5204,-0.5205,-0.5176,-0.5138,-0.5153,-0.5105,-0.5059,-0.5022,-0.5,-0.4993,-0.5034,-0.4991,-0.4996,-0.5001,-0.5111,-0.5128,-0.5142,0,0,0,0,0,0,-0.5102,-0.5113,-0.5123,-0.5135,-0.5142,-0.5202,-0.514,-0.5132,-0.5135,-0.5127,-0.507,-0.5058,-0.5014,-0.4999,-0.4994,-0.5034,-0.4954,-0.4993,-0.4997,-0.5001,-0.5117,-0.5131,-0.5143,0,0,0,0,0,-0.5105,-0.5113,-0.5164,-0.5133,-0.5139,-0.5119,-0.5137,-0.513,-0.512,-0.5076,-0.5063,-0.51,-0.5016,-0.5007,-0.4996,-0.5038,-0.4957,-0.4956,-0.4996,-0.4999,-0.5002,-0.5123,0,0,0,0,0,0,-0.5107,-0.5092,-0.5164,-0.5165,-0.5112,-0.5114,-0.5113,-0.5128,-0.5067,-0.5058,-0.5102,-0.5096,-0.5019,-0.5011,-0.5005,-0.5043,-0.496,-0.4958,-0.4957,-0.4998,-0.5001,-0.5003,0,0,0,0,0,0,-0.5088,-0.5093,-0.5164,-0.514,-0.5136,-0.5109,-0.5109,-0.5099,-0.5064,-0.5093,-0.5088,-0.51,-0.5017,-0.5014,-0.5009,-0.4996,-0.4962,-0.496,-0.4959,-0.4958,-0.5001,-0.5003,0,0,0,0,0,0,-0.509,-0.5094,-0.5138,-0.5136,-0.5133,-0.513,-0.5097,-0.5113,-0.5084,-0.5094,-0.5078,-0.5075,-0.5021,-0.5015,-0.5012,-0.5002,-0.4998,-0.4962,-0.4961,-0.496,-0.4959,0,0,0,0,0,0,0,-0.5091,-0.5073,-0.5171,-0.5134,-0.5131,-0.5172,-0.5171,-0.517,-0.5083,-0.5081,-0.5078,-0.5076,-0.4972,-0.497,-0.4968,-0.5007,0,0,-0.4962,-0.4961,0,0,0,0,0,0,0,0,-0.5071,-0.5073,-0.5171,-0.5172,-0.5172,-0.5172,-0.5171,-0.517,-0.5083,-0.5081,-0.5079,-0.5077,-0.4971,-0.497,-0.4968,0,0,0,0,0,0,0,0,0,0,0,0,0,0,0,-0.5171,-0.5172,0,-0.5172,-0.5171,-0.5171,-0.5083,-0.5081,-0.5079,-0.5078,-0.4971,-0.497,-0.4968,0,0,0,0,0,0,0,0,0,0,0,0,0,0,0,0,0,0,0,0,0,0,0,0,0,0,0,0,0,0,0,0,0,0,0,0,0,0,0,0,0,0,0,0,0,0,0,0,0,0,0,0,0,0,0,0,0,0,0,0,0,0,0,0,0,0,0,0,0]}],[{"header":{"parameterUnit":"kt","parameterCategory":2,"dx":1,"dy":1,"la1":30.253999710083008,"la2":30.299108505249023,"lo1":-89.0895004272461,"lo2":-89.04439544677734,"nx":28,"ny":28,"refTime":"2022-10-27T21:00:00:Z","depth":"0","parameterNumber":3,"parameterNumberName":"V-component_of_CURRENTS"},"data":[-0.2164,-0.2299,-0.2366,-0.2473,-0.2524,-0.2492,-0.2415,-0.212,-0.1777,-0.1063,-0.0457,0.0029,0.0986,0.2347,0.3099,0.3125,0.3348,0.3302,0.3434,0.2996,0.2935,0.2877,0.2897,0.3464,0.3465,0.4022,0.4027,0.4031,-0.2122,-0.2216,-0.2333,-0.2424,-0.247,-0.2466,-0.2376,-0.223,-0.1941,-0.1528,-0.1088,-0.0119,0.0688,0.137,0.219,0.2475,0.2499,0.2582,0.2638,0.2704,0.2096,0.2095,0.2501,0.2501,0.25,0.25,0.25,0.2499,-0.2047,-0.2133,-0.2214,-0.231,-0.2357,-0.2362,-0.233,-0.2184,-0.1994,-0.1602,-0.1308,-0.0749,0.0061,0.09,0.119,0.1758,0.1655,0.1892,0.1956,0.1973,0.2104,0.1374,0.1698,0.1697,0.1696,0.1695,0.1694,0,-0.1978,-0.1999,-0.2055,-0.2177,-0.2212,-0.2226,-0.2189,-0.2143,-0.1906,-0.171,-0.1337,-0.1029,-0.037,0.0245,0.0803,0.104,0.1325,0.1233,0.1459,0.1626,0.1666,0.1826,0.1025,0.1282,0.1279,0.1276,0.1274,0.1273,-0.186,-0.1915,-0.197,-0.2017,-0.2023,-0.2038,-0.2034,-0.1886,-0.1803,-0.1483,-0.1404,-0.1011,-0.0661,-0.0012,0.0412,0.0857,0.1001,0.114,0.1088,0.1289,0.1411,0.144,0.1534,0.1235,0.124,0.1244,0.1247,0,-0.179,-0.1788,-0.1855,-0.1844,-0.1848,-0.1877,-0.1797,-0.1758,-0.1599,-0.1452,-0.1395,-0.104,-0.0663,-0.0322,0.0095,0.0296,0.0784,0.0741,0.0753,0.0824,0.1224,0.1285,0.168,0.1826,0.1027,0.1031,0.1035,0,-0.1663,-0.1706,-0.1697,-0.1729,-0.1778,-0.1673,-0.1662,-0.1573,-0.1409,-0.1305,-0.1098,-0.0944,-0.0608,-0.0337,-0.0108,0.0272,0.025,0.0485,0.0559,0.0588,0.0599,0.0875,0.0947,0.0435,0.0433,0.0431,0.043,0,-0.1538,-0.1563,-0.1624,-0.1613,-0.1554,-0.1544,-0.1498,-0.1341,-0.1273,-0.1087,-0.1008,-0.0773,-0.0629,-0.0413,-0.0104,-0.0137,0.024,0.0236,0.0472,0.0481,0.0626,0.0644,0.0969,0.0427,0.0427,0.0426,0.0425,0,-0.1407,-0.1437,-0.1503,-0.1467,-0.1459,-0.1447,-0.1341,-0.1286,-0.11,-0.1005,-0.0855,-0.0711,-0.0529,-0.0474,-0.0164,-0.0239,-0.0081,0.0057,0.007,0.0217,0.0275,0.051,0.0607,0.0834,0.0228,0.0226,0.0224,0,-0.1299,-0.1368,-0.1309,-0.134,-0.1356,-0.1229,-0.1188,-0.1084,-0.0969,-0.0866,-0.0698,-0.0595,-0.0511,-0.0452,-0.0342,-0.0153,-0.0061,-0.017,0.0131,0.0139,0.0217,0.0276,0.0342,0.0559,0.0193,0.0197,0.0199,0,-0.12,-0.118,-0.1187,-0.1193,-0.1109,-0.1084,-0.1033,-0.0948,-0.0906,-0.0786,-0.0713,-0.0565,-0.0476,-0.0403,-0.0298,-0.0203,-0.0104,-0.0141,-0.0133,-0.0063,0.0121,0.0222,0.0253,-0.0059,-0.0056,-0.0054,0.0175,0,-0.1084,-0.1096,-0.1108,-0.1084,-0.104,-0.1035,-0.093,-0.0881,-0.0807,-0.0724,-0.0613,-0.0477,-0.0357,-0.0316,-0.0248,-0.0163,-0.0125,-0.0089,-0.0046,-0.0051,0.0051,0.007,-0.0116,-0.0114,-0.0112,-0.0111,0,0,-0.0999,-0.102,-0.0945,-0.0956,-0.0929,-0.0819,-0.0833,-0.0766,-0.0659,-0.0613,-0.0583,-0.0389,-0.0296,-0.0192,-0.019,-0.0141,-0.0073,-0.0137,-0.0057,-0.0052,-0.0046,0.005,0.0066,-0.0108,-0.0107,-0.0107,-0.0106,0,-0.0957,-0.0917,-0.0947,-0.0904,-0.0846,-0.0786,-0.0783,-0.0695,-0.0647,-0.0581,-0.049,-0.0401,-0.0282,-0.0193,-0.0134,-0.0126,-0.0036,-0.0108,-0.0151,-0.0047,-0.0044,-0.004,0.0054,0.0067,-0.0102,-0.0102,-0.0103,0,-0.0885,-0.0853,-0.0852,-0.0799,-0.0752,-0.0734,-0.0658,-0.0626,-0.0602,-0.048,-0.0425,-0.0339,-0.0224,-0.0157,-0.012,-0.0097,0.0011,-0.0036,-0.0043,-0.0043,0.0068,0.0071,0.0073,0.0044,0.0044,0.0043,0,0,-0.0857,-0.0858,-0.078,-0.0783,-0.0761,-0.0677,-0.0648,-0.0602,-0.0525,-0.0494,-0.0407,-0.0315,-0.0234,-0.0183,-0.0107,-0.0043,0.0032,-0.0024,-0.0031,-0.0037,-0.0042,0.0067,0.007,0.0043,0.0043,0.0043,0,0,-0.0834,-0.0771,-0.0743,-0.0745,-0.0688,-0.0596,-0.0589,-0.0539,-0.0468,-0.0461,-0.0351,-0.0323,-0.0256,-0.0187,-0.0203,-0.0095,-0.006,-0.0054,-0.0152,-0.0159,-0.0166,-0.0193,-0.0134,0,0,0,0,0,-0.076,-0.0781,-0.0757,-0.0747,-0.0667,-0.0611,-0.0596,-0.0529,-0.0503,-0.0499,-0.0411,-0.036,-0.0172,-0.0184,-0.0159,-0.0156,0.0039,0.004,0.004,-0.007,-0.0078,-0.0086,0,0,0,0,0,0,-0.0755,-0.0745,-0.0755,-0.0671,-0.0651,-0.0611,-0.0558,-0.0539,-0.0503,-0.0495,-0.0378,-0.0356,-0.0283,-0.0191,-0.017,-0.0169,-0.0141,0.0039,0.004,0.004,-0.0073,-0.008,-0.0086,0,0,0,0,0,-0.0751,-0.0743,-0.0643,-0.0668,-0.0651,-0.0563,-0.0558,-0.0542,-0.0512,-0.0396,-0.0374,-0.0465,-0.0285,-0.0261,-0.0178,-0.0181,-0.0155,-0.0148,0.004,0.004,0.0041,-0.0076,0,0,0,0,0,0,-0.0748,-0.0719,-0.0636,-0.0627,-0.0667,-0.0563,-0.0549,-0.0544,-0.0413,-0.0393,-0.0478,-0.0473,-0.0287,-0.0267,-0.0249,-0.019,-0.0167,-0.0159,-0.0154,0.004,0.004,0.0041,0,0,0,0,0,0,-0.0722,-0.0712,-0.0631,-0.0634,-0.0624,-0.0564,-0.0551,-0.0474,-0.0411,-0.0501,-0.0494,-0.0477,-0.0301,-0.0272,-0.0258,-0.0141,-0.0176,-0.0168,-0.0163,-0.016,0.004,0.0041,0,0,0,0,0,0,-0.0716,-0.0707,-0.0636,-0.0629,-0.062,-0.0507,-0.0491,-0.0406,-0.044,-0.0507,-0.0438,-0.0438,-0.0306,-0.0291,-0.0264,-0.0154,-0.0144,-0.0175,-0.017,-0.0167,-0.0164,0,0,0,0,0,0,0,-0.071,-0.0799,-0.0693,-0.0624,-0.0616,-0.0538,-0.0536,-0.0533,-0.044,-0.0439,-0.0439,-0.0438,-0.0218,-0.021,-0.0202,-0.0164,0,0,-0.0176,-0.0173,0,0,0,0,0,0,0,0,-0.08,-0.0799,-0.0693,-0.0691,-0.0689,-0.0538,-0.0536,-0.0534,-0.044,-0.0439,-0.0439,-0.0438,-0.0216,-0.0209,-0.0203,0,0,0,0,0,0,0,0,0,0,0,0,0,0,0,-0.0693,-0.0691,0,-0.0538,-0.0536,-0.0534,-0.044,-0.0439,-0.0439,-0.0438,-0.0214,-0.0209,-0.0203,0,0,0,0,0,0,0,0,0,0,0,0,0,0,0,0,0,0,0,0,0,0,0,0,0,0,0,0,0,0,0,0,0,0,0,0,0,0,0,0,0,0,0,0,0,0,0,0,0,0,0,0,0,0,0,0,0,0,0,0,0,0,0,0,0,0,0,0,0]}]],[[{"header":{"parameterUnit":"kt","parameterCategory":2,"dx":1,"dy":1,"la1":30.253999710083008,"la2":30.299108505249023,"lo1":-89.0895004272461,"lo2":-89.04439544677734,"nx":28,"ny":28,"refTime":"2022-10-27T21:00:00:Z","depth":"2","parameterNumber":2,"parameterNumberName":"U-component_of_CURRENTS"},"data":[-0.3488,-0.3393,-0.3409,-0.3209,-0.322,-0.3036,-0.297,-0.2835,-0.278,-0.2532,-0.2426,-0.2613,-0.2721,-0.2247,-0.2159,-0.1936,-0.2167,-0.1834,-0.2692,-0.2756,-0.2817,-0.2999,-0.2939,0,0,0,0,0,-0.3641,-0.3652,-0.3667,-0.3682,-0.3623,-0.3768,-0.3776,-0.3648,-0.3519,-0.355,-0.3455,-0.3043,-0.2845,-0.2843,-0.2532,-0.2486,-0.248,-0.2379,-0.2376,-0.2447,-0.2512,-0.2422,-0.1809,-0.1806,-0.1803,-0.1801,0,0,-0.3902,-0.3902,-0.3955,-0.3987,-0.4055,-0.4055,-0.4,-0.41,-0.4099,-0.4039,-0.4191,-0.3974,-0.3962,-0.3476,-0.3291,-0.3158,-0.3408,-0.3252,-0.3279,-0.3314,-0.3261,-0.3212,-0.2873,-0.2878,-0.2881,-0.2885,-0.2888,0,-0.4085,-0.4148,-0.4189,-0.426,-0.4311,-0.4376,-0.4455,-0.4491,-0.467,-0.4696,-0.4657,-0.4598,-0.4462,-0.4116,-0.3937,-0.3779,-0.3905,-0.3709,-0.4315,-0.3641,-0.3597,-0.3565,-0.3604,-0.3342,-0.3349,-0.3355,-0.3358,-0.3361,-0.4251,-0.4279,-0.4436,-0.4455,-0.4515,-0.4605,-0.4653,-0.4843,-0.4874,-0.5001,-0.4971,-0.4958,-0.4842,-0.4647,-0.4482,-0.4282,-0.4423,-0.3883,-0.385,-0.4384,-0.4348,-0.4362,-0.4374,-0.3439,-0.3429,-0.3421,-0.3415,0,-0.4313,-0.4429,-0.4504,-0.4659,-0.4699,-0.4736,-0.4883,-0.4919,-0.5048,-0.507,-0.509,-0.5154,-0.5047,-0.4997,-0.4875,-0.4767,-0.4619,-0.4521,-0.4203,-0.4117,-0.4401,-0.4407,-0.4269,-0.4262,-0.4257,-0.4253,-0.4249,0,-0.4441,-0.4485,-0.4641,-0.4672,-0.4742,-0.4865,-0.493,-0.5004,-0.5104,-0.512,-0.5193,-0.5171,-0.5164,-0.5089,-0.4999,-0.4792,-0.4863,-0.4644,-0.4593,-0.4327,-0.4291,-0.4748,-0.4746,-0.4778,-0.478,-0.478,-0.4781,0,-0.4466,-0.4613,-0.4677,-0.4723,-0.4874,-0.4915,-0.498,-0.5066,-0.5109,-0.5175,-0.5194,-0.5185,-0.5163,-0.509,-0.4987,-0.5,-0.4873,-0.4867,-0.4648,-0.4636,-0.4296,-0.4254,-0.4782,-0.4783,-0.4783,-0.4783,-0.4784,0,-0.4555,-0.4626,-0.4719,-0.484,-0.4867,-0.4928,-0.5006,-0.5071,-0.5131,-0.5154,-0.5152,-0.5136,-0.5129,-0.5092,-0.5003,-0.5033,-0.4952,-0.4902,-0.4895,-0.4714,-0.4652,-0.424,-0.4175,-0.4786,-0.4787,-0.4788,-0.4788,0,-0.4544,-0.4649,-0.4714,-0.4803,-0.4854,-0.4913,-0.4985,-0.5034,-0.5056,-0.5088,-0.5063,-0.5075,-0.504,-0.5036,-0.502,-0.4972,-0.4937,-0.4979,-0.4811,-0.4806,-0.4664,-0.4686,-0.4357,-0.4207,-0.4798,-0.4797,-0.4796,0,-0.452,-0.4654,-0.4658,-0.47,-0.4795,-0.4826,-0.4904,-0.4953,-0.4982,-0.4997,-0.5018,-0.5028,-0.4993,-0.4984,-0.4959,-0.4946,-0.4945,-0.4906,-0.4901,-0.4842,-0.4858,-0.4714,-0.4694,-0.493,-0.493,-0.493,-0.4803,0,-0.4565,-0.4614,-0.4642,-0.4713,-0.4755,-0.4801,-0.4849,-0.4879,-0.4883,-0.489,-0.4907,-0.4881,-0.4867,-0.4883,-0.4864,-0.4889,-0.4846,-0.4824,-0.4761,-0.4824,-0.4759,-0.4754,-0.4782,-0.478,-0.4779,-0.4777,0,0,-0.451,-0.456,-0.4581,-0.4638,-0.467,-0.4683,-0.4733,-0.4758,-0.478,-0.4781,-0.4765,-0.476,-0.4742,-0.4758,-0.4792,-0.4783,-0.4742,-0.4765,-0.4803,-0.4806,-0.4809,-0.4751,-0.4748,-0.4774,-0.4773,-0.4773,-0.4772,0,-0.451,-0.453,-0.4564,-0.4604,-0.4649,-0.4663,-0.4682,-0.4709,-0.471,-0.4744,-0.4701,-0.4701,-0.4702,-0.4686,-0.4679,-0.4756,-0.4683,-0.4765,-0.482,-0.4789,-0.4795,-0.4799,-0.4744,-0.4743,-0.4768,-0.4768,-0.4768,0,-0.4484,-0.4511,-0.4524,-0.4576,-0.4589,-0.4638,-0.4603,-0.4637,-0.4671,-0.46,-0.4624,-0.4604,-0.4575,-0.46,-0.4607,-0.4576,-0.4613,-0.4621,-0.463,-0.4619,-0.4583,-0.4591,-0.4598,-0.4502,-0.4501,-0.4501,0,0,-0.4483,-0.4509,-0.4547,-0.4576,-0.4595,-0.4602,-0.4615,-0.4614,-0.4612,-0.4605,-0.4582,-0.4559,-0.4558,-0.4551,-0.4542,-0.4566,-0.4513,-0.4592,-0.4604,-0.4615,-0.461,-0.4577,-0.4585,-0.4499,-0.4499,-0.4498,0,0,-0.4474,-0.4512,-0.451,-0.4548,-0.4579,-0.4589,-0.4602,-0.4598,-0.4588,-0.4573,-0.4527,-0.4517,-0.4538,-0.4507,-0.4482,-0.4529,-0.4474,-0.4478,-0.4553,-0.4568,-0.458,-0.4576,-0.442,0,0,0,0,0,-0.4484,-0.4514,-0.4512,-0.4522,-0.4553,-0.4597,-0.4599,-0.4583,-0.4558,-0.4575,-0.4542,-0.4502,-0.4485,-0.4462,-0.4457,-0.4499,-0.447,-0.4475,-0.448,-0.4582,-0.4598,-0.4612,0,0,0,0,0,0,-0.4488,-0.4499,-0.4512,-0.4527,-0.4534,-0.4595,-0.4545,-0.4541,-0.4555,-0.455,-0.451,-0.4501,-0.4462,-0.4461,-0.4458,-0.4499,-0.4422,-0.4472,-0.4476,-0.448,-0.4587,-0.46,-0.4612,0,0,0,0,0,-0.4491,-0.45,-0.4556,-0.4525,-0.4531,-0.4526,-0.4543,-0.4539,-0.4542,-0.4506,-0.4497,-0.4532,-0.4464,-0.4458,-0.4459,-0.4502,-0.4424,-0.4423,-0.4474,-0.4478,-0.4481,-0.4594,0,0,0,0,0,0,-0.4493,-0.4482,-0.4557,-0.4558,-0.451,-0.4521,-0.4522,-0.4537,-0.4495,-0.4489,-0.4524,-0.4519,-0.4466,-0.4461,-0.4456,-0.4506,-0.4425,-0.4424,-0.4424,-0.4477,-0.448,-0.4482,0,0,0,0,0,0,-0.4478,-0.4483,-0.4557,-0.454,-0.4538,-0.4517,-0.4518,-0.4512,-0.4493,-0.4512,-0.4509,-0.4522,-0.4465,-0.4463,-0.4459,-0.4451,-0.4427,-0.4426,-0.4425,-0.4424,-0.4479,-0.4481,0,0,0,0,0,0,-0.448,-0.4484,-0.4538,-0.4538,-0.4536,-0.4543,-0.4509,-0.4532,-0.4511,-0.4513,-0.4506,-0.4504,-0.4467,-0.4463,-0.4461,-0.4455,-0.4452,-0.4427,-0.4426,-0.4425,-0.4425,0,0,0,0,0,0,0,-0.4481,-0.4457,-0.4558,-0.4536,-0.4534,-0.4572,-0.4572,-0.4571,-0.451,-0.4509,-0.4507,-0.4505,-0.4433,-0.4432,-0.4431,-0.4459,0,0,-0.4427,-0.4426,0,0,0,0,0,0,0,0,-0.4455,-0.4456,-0.4559,-0.4559,-0.456,-0.4572,-0.4572,-0.4571,-0.451,-0.4509,-0.4507,-0.4506,-0.4433,-0.4432,-0.4431,0,0,0,0,0,0,0,0,0,0,0,0,0,0,0,-0.4559,-0.4559,0,-0.4572,-0.4572,-0.4572,-0.451,-0.4509,-0.4508,-0.4506,-0.4433,-0.4432,-0.4431,0,0,0,0,0,0,0,0,0,0,0,0,0,0,0,0,0,0,0,0,0,0,0,0,0,0,0,0,0,0,0,0,0,0,0,0,0,0,0,0,0,0,0,0,0,0,0,0,0,0,0,0,0,0,0,0,0,0,0,0,0,0,0,0,0,0,0,0,0]}],[{"header":{"parameterUnit":"kt","parameterCategory":2,"dx":1,"dy":1,"la1":30.253999710083008,"la2":30.299108505249023,"lo1":-89.0895004272461,"lo2":-89.04439544677734,"nx":28,"ny":28,"refTime":"2022-10-27T21:00:00:Z","depth":"2","parameterNumber":3,"parameterNumberName":"V-component_of_CURRENTS"},"data":[-0.1959,-0.2094,-0.2159,-0.2287,-0.235,-0.2345,-0.2289,-0.2039,-0.1745,-0.1329,-0.0947,-0.0501,0.0053,0.0394,0.0746,0.1004,0.0947,0.0995,0.1001,0.077,0.0755,0.0973,0.0863,0,0,0,0,0,-0.1911,-0.2002,-0.2123,-0.2224,-0.2283,-0.2285,-0.2226,-0.2104,-0.1872,-0.1519,-0.1141,-0.0582,-0.0018,0.0436,0.0944,0.1236,0.116,0.1241,0.1092,0.1079,0.1068,0.1006,0.1194,0.1195,0.1195,0.1196,0,0,-0.1827,-0.1911,-0.1995,-0.2098,-0.2156,-0.2179,-0.2161,-0.2044,-0.1891,-0.1555,-0.1298,-0.0815,-0.0357,0.0442,0.0786,0.1081,0.107,0.1119,0.1108,0.1096,0.1044,0.0995,0.1237,0.1238,0.1238,0.1239,0.1239,0,-0.1752,-0.1775,-0.183,-0.1959,-0.2004,-0.2027,-0.2005,-0.1973,-0.1764,-0.1597,-0.1278,-0.1008,-0.0405,0.0107,0.0632,0.0842,0.0883,0.0997,0.0938,0.0772,0.0713,0.0744,0.0723,0.0913,0.0912,0.0911,0.091,0.091,-0.1637,-0.1689,-0.1748,-0.1799,-0.1809,-0.1832,-0.1837,-0.1701,-0.1633,-0.1351,-0.1288,-0.0932,-0.0625,-0.0018,0.0373,0.0793,0.0759,0.0953,0.0894,0.0772,0.081,0.0787,0.0765,0.0896,0.0898,0.0899,0.09,0,-0.157,-0.1569,-0.1634,-0.1628,-0.1635,-0.1668,-0.1604,-0.1573,-0.1425,-0.1304,-0.1255,-0.0926,-0.0584,-0.0258,0.0131,0.0322,0.0622,0.0731,0.0621,0.0669,0.0752,0.0735,0.0976,0.0981,0.0985,0.0988,0.0991,0,-0.1453,-0.1493,-0.1489,-0.152,-0.157,-0.1473,-0.1467,-0.1387,-0.1238,-0.1154,-0.0951,-0.082,-0.0502,-0.0253,-0.0036,0.0308,0.0299,0.0503,0.0568,0.0493,0.0492,0.0416,0.0406,0.048,0.0478,0.0477,0.0475,0,-0.1342,-0.1365,-0.142,-0.1411,-0.1359,-0.1352,-0.1312,-0.1168,-0.1109,-0.0937,-0.0869,-0.0645,-0.0523,-0.0312,-0.0035,-0.0063,0.0286,0.0286,0.0488,0.0495,0.0527,0.0533,0.0473,0.0473,0.0472,0.0472,0.0471,0,-0.1224,-0.1252,-0.1311,-0.128,-0.1274,-0.1264,-0.1169,-0.1119,-0.0947,-0.0862,-0.0723,-0.0597,-0.0426,-0.0381,-0.0088,-0.0161,-0.0015,0.0111,0.0123,0.0237,0.0282,0.0398,0.0464,0.0266,0.0264,0.0262,0.026,0,-0.113,-0.1192,-0.114,-0.1168,-0.1183,-0.1071,-0.1032,-0.0938,-0.0836,-0.0742,-0.0588,-0.0499,-0.0425,-0.0376,-0.0266,-0.0099,-0.0006,-0.0111,0.0166,0.0174,0.0233,0.0289,0.0232,0.0423,0.023,0.0233,0.0235,0,-0.1045,-0.1029,-0.1037,-0.1043,-0.097,-0.0949,-0.0901,-0.0823,-0.0783,-0.0678,-0.0608,-0.0477,-0.04,-0.0334,-0.0242,-0.0148,-0.0049,-0.0097,-0.009,-0.0019,0.0166,0.0239,0.0266,-0.0008,-0.0005,-0.0003,0.0211,0,-0.0944,-0.0957,-0.0968,-0.0949,-0.091,-0.0908,-0.0815,-0.0773,-0.0709,-0.0633,-0.0534,-0.0414,-0.0306,-0.0271,-0.0212,-0.0126,-0.0096,-0.0065,-0.002,-0.0022,0.0072,0.009,-0.01,-0.0098,-0.0097,-0.0095,0,0,-0.087,-0.0892,-0.083,-0.084,-0.0816,-0.0723,-0.0735,-0.0675,-0.0582,-0.0539,-0.0516,-0.0345,-0.0262,-0.0162,-0.0162,-0.0122,-0.0059,-0.0112,-0.0033,-0.0027,-0.002,0.0069,0.0084,-0.0093,-0.0093,-0.0092,-0.0092,0,-0.0833,-0.0804,-0.0831,-0.0796,-0.0747,-0.0695,-0.0692,-0.0616,-0.0574,-0.0515,-0.0435,-0.0356,-0.0252,-0.0169,-0.0115,-0.011,-0.0026,-0.0098,-0.0127,-0.0025,-0.0021,-0.0016,0.0071,0.0084,-0.0088,-0.0089,-0.0089,0,-0.0771,-0.0745,-0.0746,-0.0704,-0.0664,-0.0648,-0.0583,-0.0556,-0.0532,-0.0425,-0.0375,-0.0302,-0.0199,-0.0139,-0.0106,-0.0083,0.0019,-0.0029,-0.0034,-0.0032,0.0076,0.008,0.0084,0.0039,0.0039,0.0039,0,0,-0.0746,-0.075,-0.0684,-0.069,-0.0672,-0.0599,-0.0574,-0.0534,-0.0466,-0.0438,-0.0361,-0.0278,-0.0207,-0.0159,-0.0095,-0.0035,0.0035,-0.0018,-0.0024,-0.0029,-0.003,0.0075,0.0079,0.0039,0.0039,0.0039,0,0,-0.0724,-0.0673,-0.065,-0.0656,-0.0607,-0.0527,-0.0521,-0.0478,-0.0414,-0.0409,-0.0308,-0.0283,-0.0225,-0.0163,-0.0174,-0.008,-0.005,-0.0045,-0.0125,-0.0131,-0.0137,-0.0157,-0.011,0,0,0,0,0,-0.066,-0.0682,-0.0662,-0.0654,-0.0588,-0.0541,-0.0527,-0.0468,-0.0445,-0.0441,-0.0363,-0.0315,-0.0149,-0.0157,-0.0135,-0.0129,0.0038,0.0038,0.0038,-0.005,-0.0058,-0.0064,0,0,0,0,0,0,-0.0657,-0.0649,-0.0661,-0.0587,-0.0571,-0.054,-0.0492,-0.0475,-0.0444,-0.0437,-0.0331,-0.0312,-0.0245,-0.0164,-0.0144,-0.0141,-0.0117,0.0038,0.0038,0.0039,-0.0053,-0.0059,-0.0064,0,0,0,0,0,-0.0653,-0.0647,-0.0567,-0.0585,-0.0571,-0.0493,-0.0491,-0.0477,-0.0452,-0.0347,-0.0327,-0.041,-0.0247,-0.0225,-0.0152,-0.0152,-0.0129,-0.0122,0.0038,0.0038,0.0039,-0.0056,0,0,0,0,0,0,-0.0651,-0.0625,-0.0561,-0.0553,-0.0583,-0.0493,-0.0481,-0.048,-0.0362,-0.0344,-0.0421,-0.0416,-0.0248,-0.0231,-0.0215,-0.016,-0.014,-0.0133,-0.0128,0.0038,0.0038,0.0039,0,0,0,0,0,0,-0.0628,-0.0619,-0.0557,-0.0558,-0.055,-0.0493,-0.0482,-0.0414,-0.036,-0.0441,-0.0435,-0.042,-0.026,-0.0235,-0.0222,-0.0117,-0.0148,-0.0141,-0.0136,-0.0133,0.0038,0.0039,0,0,0,0,0,0,-0.0622,-0.0615,-0.056,-0.0553,-0.0546,-0.0447,-0.0428,-0.0356,-0.0388,-0.0446,-0.0386,-0.0385,-0.0265,-0.0251,-0.0228,-0.0129,-0.012,-0.0147,-0.0143,-0.014,-0.0137,0,0,0,0,0,0,0,-0.0618,-0.0693,-0.0611,-0.0549,-0.0542,-0.0476,-0.0473,-0.0471,-0.0387,-0.0387,-0.0386,-0.0385,-0.0186,-0.0178,-0.0171,-0.0139,0,0,-0.0148,-0.0145,0,0,0,0,0,0,0,0,-0.0693,-0.0693,-0.0611,-0.0609,-0.0607,-0.0475,-0.0473,-0.0472,-0.0387,-0.0387,-0.0386,-0.0386,-0.0184,-0.0178,-0.0172,0,0,0,0,0,0,0,0,0,0,0,0,0,0,0,-0.0611,-0.0609,0,-0.0475,-0.0473,-0.0472,-0.0387,-0.0387,-0.0386,-0.0386,-0.0182,-0.0177,-0.0172,0,0,0,0,0,0,0,0,0,0,0,0,0,0,0,0,0,0,0,0,0,0,0,0,0,0,0,0,0,0,0,0,0,0,0,0,0,0,0,0,0,0,0,0,0,0,0,0,0,0,0,0,0,0,0,0,0,0,0,0,0,0,0,0,0,0,0,0,0]}]],[[{"header":{"parameterUnit":"kt","parameterCategory":2,"dx":1,"dy":1,"la1":30.253999710083008,"la2":30.299108505249023,"lo1":-89.0895004272461,"lo2":-89.04439544677734,"nx":28,"ny":28,"refTime":"2022-10-27T21:00:00:Z","depth":"4","parameterNumber":2,"parameterNumberName":"U-component_of_CURRENTS"},"data":[-0.2218,-0.2265,-0.2287,-0.2175,-0.2164,-0.225,-0.2356,-0.2519,-0.2445,-0.2685,-0.2611,-0.2807,-0.2701,-0.2891,-0.2613,-0.2623,-0.2658,-0.2781,-0.2773,-0.2971,-0.3002,-0.3029,-0.3022,0,0,0,0,0,-0.234,-0.2326,-0.2394,-0.2464,-0.2593,-0.2653,-0.2844,-0.2981,-0.32,-0.3012,-0.3136,-0.3014,-0.287,-0.289,-0.2697,-0.2957,-0.2958,-0.2724,-0.2882,-0.299,-0.3024,-0.3006,0,0,0,0,0,0,-0.2507,-0.2538,-0.2669,-0.2758,-0.2897,-0.2903,-0.3035,-0.3058,-0.3137,-0.3335,-0.3266,-0.3286,-0.3404,-0.3211,-0.3104,-0.2988,-0.2946,-0.286,-0.2899,-0.2932,-0.2891,-0.2824,-0.2442,0,0,0,0,0,-0.2649,-0.2775,-0.2865,-0.3009,-0.3125,-0.3228,-0.3359,-0.3374,-0.3576,-0.3786,-0.365,-0.358,-0.3472,-0.3387,-0.3283,-0.3168,-0.3425,-0.327,-0.3288,-0.3328,-0.3307,-0.3286,-0.3312,-0.3154,-0.3158,-0.3161,-0.3162,0,-0.2812,-0.2871,-0.3124,-0.3188,-0.3299,-0.3459,-0.3542,-0.3768,-0.3811,-0.3964,-0.3929,-0.395,-0.3956,-0.3608,-0.3661,-0.349,-0.3446,-0.3359,-0.3403,-0.3364,-0.333,-0.3348,-0.3364,-0.319,-0.3188,-0.3185,-0.3183,0,-0.2883,-0.304,-0.3167,-0.3393,-0.3462,-0.3547,-0.3763,-0.3826,-0.3998,-0.4048,-0.4088,-0.4178,-0.409,-0.4087,-0.3999,-0.386,-0.3707,-0.3589,-0.3909,-0.3879,-0.341,-0.3415,-0.3235,-0.3225,-0.3216,-0.3209,-0.3203,0,-0.3025,-0.311,-0.3335,-0.3386,-0.3505,-0.3663,-0.3786,-0.3889,-0.4036,-0.4074,-0.42,-0.4189,-0.4252,-0.4201,-0.4135,-0.3907,-0.4035,-0.3737,-0.3682,-0.4003,-0.4006,-0.3948,-0.3945,-0.3986,-0.3987,-0.3988,-0.3989,0,-0.3076,-0.3258,-0.3358,-0.3419,-0.3614,-0.3697,-0.3798,-0.3935,-0.4007,-0.4135,-0.4182,-0.4223,-0.4245,-0.4199,-0.4133,-0.4156,-0.4049,-0.4059,-0.3756,-0.3738,-0.3953,-0.3948,-0.399,-0.399,-0.3991,-0.3991,-0.3991,0,-0.3178,-0.3265,-0.3391,-0.3551,-0.359,-0.3684,-0.3824,-0.3916,-0.4034,-0.4097,-0.4152,-0.4178,-0.4212,-0.4196,-0.415,-0.418,-0.4118,-0.4082,-0.4076,-0.3792,-0.3731,-0.3899,-0.3974,-0.3975,-0.3976,-0.3976,-0.3977,0,-0.3181,-0.3301,-0.3382,-0.3506,-0.3573,-0.3676,-0.3773,-0.3867,-0.3945,-0.4028,-0.4056,-0.4122,-0.4115,-0.4149,-0.4149,-0.4127,-0.4102,-0.4138,-0.3995,-0.399,-0.3747,-0.3754,-0.4109,-0.3985,-0.3984,-0.3983,-0.3983,0,-0.3159,-0.3324,-0.334,-0.3404,-0.3536,-0.3581,-0.3698,-0.3786,-0.3852,-0.3939,-0.4005,-0.4073,-0.4078,-0.4088,-0.4092,-0.4092,-0.4106,-0.4068,-0.4064,-0.4001,-0.4045,-0.3794,-0.3765,-0.4108,-0.4109,-0.4109,-0.3989,0,-0.3207,-0.3286,-0.3323,-0.3418,-0.3482,-0.3552,-0.363,-0.3708,-0.3776,-0.3815,-0.3903,-0.3925,-0.3964,-0.3995,-0.3993,-0.404,-0.4002,-0.3987,-0.3922,-0.3994,-0.3931,-0.3927,-0.3942,-0.394,-0.3938,-0.3937,0,0,-0.316,-0.3223,-0.3272,-0.3333,-0.3387,-0.3448,-0.3512,-0.357,-0.366,-0.3693,-0.3715,-0.3802,-0.3821,-0.3867,-0.3913,-0.3921,-0.389,-0.3913,-0.397,-0.3974,-0.3978,-0.3922,-0.392,-0.3933,-0.3933,-0.3932,-0.3932,0,-0.3142,-0.32,-0.3247,-0.3302,-0.3385,-0.3416,-0.3452,-0.3524,-0.3572,-0.3661,-0.3662,-0.3712,-0.3779,-0.3783,-0.3792,-0.3892,-0.3834,-0.3921,-0.3974,-0.3956,-0.3963,-0.3968,-0.3915,-0.3914,-0.3927,-0.3927,-0.3928,0,-0.3111,-0.3151,-0.3183,-0.3257,-0.3302,-0.3362,-0.3362,-0.3438,-0.3498,-0.3479,-0.3583,-0.3601,-0.3607,-0.3676,-0.3711,-0.3681,-0.3763,-0.3767,-0.3777,-0.3759,-0.3735,-0.3744,-0.3752,-0.3642,-0.3642,-0.3641,0,0,-0.3098,-0.3147,-0.32,-0.3254,-0.3285,-0.3336,-0.3375,-0.3409,-0.3453,-0.3482,-0.3515,-0.3548,-0.3579,-0.3608,-0.3631,-0.3692,-0.364,-0.3735,-0.3748,-0.3759,-0.3749,-0.3728,-0.3737,-0.3638,-0.3638,-0.3638,0,0,-0.3082,-0.3142,-0.3168,-0.3226,-0.328,-0.3315,-0.3363,-0.3393,-0.3451,-0.3471,-0.3469,-0.3477,-0.3559,-0.3548,-0.3513,-0.3622,-0.3564,-0.3571,-0.3637,-0.3653,-0.3666,-0.3647,-0.3469,0,0,0,0,0,-0.3091,-0.3131,-0.3154,-0.317,-0.3248,-0.3302,-0.3314,-0.3359,-0.3381,-0.3421,-0.3453,-0.3435,-0.3529,-0.3497,-0.3503,-0.3563,-0.3603,-0.3609,-0.3615,-0.3714,-0.3731,-0.3746,0,0,0,0,0,0,-0.3097,-0.3114,-0.3153,-0.3186,-0.3205,-0.33,-0.3292,-0.3304,-0.3378,-0.3385,-0.3429,-0.3434,-0.3421,-0.3493,-0.3498,-0.3556,-0.3467,-0.3606,-0.3611,-0.3616,-0.372,-0.3734,-0.3747,0,0,0,0,0,-0.3102,-0.3116,-0.3233,-0.3186,-0.3202,-0.3268,-0.3292,-0.3303,-0.337,-0.3374,-0.3383,-0.3411,-0.3419,-0.3427,-0.3496,-0.3555,-0.3463,-0.3465,-0.3609,-0.3613,-0.3617,-0.3727,0,0,0,0,0,0,-0.3106,-0.3117,-0.3237,-0.3244,-0.3191,-0.3266,-0.3279,-0.3301,-0.3355,-0.3366,-0.3348,-0.3352,-0.3419,-0.3425,-0.343,-0.3556,-0.346,-0.3462,-0.3464,-0.3612,-0.3615,-0.3618,0,0,0,0,0,0,-0.3111,-0.3122,-0.324,-0.3244,-0.3251,-0.3263,-0.3275,-0.3294,-0.3354,-0.3326,-0.3331,-0.3349,-0.341,-0.3423,-0.3427,-0.3456,-0.3458,-0.346,-0.3461,-0.3462,-0.3615,-0.3617,0,0,0,0,0,0,-0.3116,-0.3126,-0.3242,-0.3248,-0.3254,-0.333,-0.328,-0.3356,-0.3368,-0.3321,-0.337,-0.3371,-0.3407,-0.3413,-0.3425,-0.3451,-0.3454,-0.3458,-0.3459,-0.346,-0.3461,0,0,0,0,0,0,0,-0.3121,-0.3044,-0.3203,-0.3251,-0.3257,-0.3307,-0.3309,-0.331,-0.3368,-0.3369,-0.337,-0.3371,-0.3446,-0.3448,-0.3451,-0.3447,0,0,-0.3458,-0.3459,0,0,0,0,0,0,0,0,-0.3041,-0.3043,-0.3203,-0.3205,-0.3206,-0.3308,-0.3309,-0.331,-0.3368,-0.3369,-0.337,-0.337,-0.3447,-0.3449,-0.345,0,0,0,0,0,0,0,0,0,0,0,0,0,0,0,-0.3203,-0.3205,0,-0.3308,-0.3309,-0.3309,-0.3368,-0.3369,-0.337,-0.337,-0.3447,-0.3449,-0.345,0,0,0,0,0,0,0,0,0,0,0,0,0,0,0,0,0,0,0,0,0,0,0,0,0,0,0,0,0,0,0,0,0,0,0,0,0,0,0,0,0,0,0,0,0,0,0,0,0,0,0,0,0,0,0,0,0,0,0,0,0,0,0,0,0,0,0,0,0]}],[{"header":{"parameterUnit":"kt","parameterCategory":2,"dx":1,"dy":1,"la1":30.253999710083008,"la2":30.299108505249023,"lo1":-89.0895004272461,"lo2":-89.04439544677734,"nx":28,"ny":28,"refTime":"2022-10-27T21:00:00:Z","depth":"4","parameterNumber":3,"parameterNumberName":"V-component_of_CURRENTS"},"data":[-0.1223,-0.1354,-0.1421,-0.1564,-0.165,-0.1744,-0.1746,-0.167,-0.1536,-0.1381,-0.1122,-0.0939,-0.0492,-0.0647,-0.0046,0.0033,0.0117,0.0563,0.0567,0.0693,0.069,0.0688,0.0573,0,0,0,0,0,-0.1194,-0.1287,-0.1419,-0.1542,-0.165,-0.1699,-0.1711,-0.1671,-0.155,-0.1382,-0.1258,-0.0961,-0.0506,-0.0289,-0.0041,0.004,0.0373,0.033,0.0425,0.0691,0.0689,0.0577,0,0,0,0,0,0,-0.1162,-0.1238,-0.1349,-0.1468,-0.1581,-0.1636,-0.164,-0.1553,-0.1486,-0.1252,-0.117,-0.0814,-0.0584,-0.0184,0.008,0.0331,0.0376,0.0428,0.0439,0.0439,0.0313,0.019,0.0293,0,0,0,0,0,-0.1113,-0.1165,-0.1231,-0.1388,-0.1466,-0.1523,-0.1549,-0.1529,-0.14,-0.1319,-0.1065,-0.0801,-0.0498,-0.0139,0.0148,0.04,0.0558,0.0639,0.0639,0.0591,0.0524,0.0544,0.0528,0.0678,0.0678,0.0678,0.0678,0,-0.1051,-0.1102,-0.1208,-0.1275,-0.1309,-0.1364,-0.1397,-0.1318,-0.1282,-0.1098,-0.1057,-0.0794,-0.0605,-0.0143,0.0125,0.0489,0.0526,0.0631,0.0579,0.0517,0.0542,0.0525,0.051,0.0675,0.0676,0.0676,0.0676,0,-0.1016,-0.1041,-0.1115,-0.1151,-0.1177,-0.1221,-0.122,-0.1211,-0.111,-0.1039,-0.1002,-0.0745,-0.0484,-0.0212,0.0112,0.0246,0.0478,0.055,0.0428,0.046,0.0515,0.0499,0.0672,0.0673,0.0673,0.0674,0.0674,0,-0.0954,-0.0999,-0.1038,-0.107,-0.1132,-0.1075,-0.1096,-0.1045,-0.0948,-0.09,-0.0729,-0.0641,-0.0366,-0.017,0.0015,0.0255,0.0292,0.0391,0.0434,0.0345,0.0332,0.0391,0.0381,0.0463,0.0461,0.046,0.0459,0,-0.0892,-0.0929,-0.0984,-0.0985,-0.0972,-0.0981,-0.0967,-0.0871,-0.0838,-0.0708,-0.0664,-0.0476,-0.0387,-0.0201,0.0014,-0.0004,0.0278,0.0287,0.0383,0.0382,0.0379,0.0371,0.0457,0.0457,0.0457,0.0456,0.0456,0,-0.0821,-0.0853,-0.0909,-0.0908,-0.0908,-0.0914,-0.0862,-0.083,-0.0708,-0.0649,-0.0541,-0.0449,-0.0305,-0.0272,-0.0027,-0.0091,0.003,0.013,0.014,0.0154,0.0174,0.0209,0.0247,0.0244,0.0242,0.024,0.0238,0,-0.0762,-0.0819,-0.0792,-0.0825,-0.0842,-0.0776,-0.0752,-0.0691,-0.0624,-0.0559,-0.044,-0.038,-0.0323,-0.0292,-0.0191,-0.0063,0.0024,-0.0067,0.0159,0.0166,0.0146,0.0182,0.0035,0.0207,0.0211,0.0214,0.0216,0,-0.0707,-0.0717,-0.0726,-0.0739,-0.07,-0.0693,-0.0661,-0.061,-0.0586,-0.0515,-0.0463,-0.0366,-0.0312,-0.0263,-0.0196,-0.0109,-0.0018,-0.0074,-0.0068,-0.0008,0.0171,0.0148,0.0164,0.0021,0.0024,0.0026,0.0194,0,-0.0647,-0.0667,-0.0679,-0.0676,-0.0656,-0.0661,-0.0603,-0.0581,-0.0543,-0.049,-0.0421,-0.0336,-0.0256,-0.0232,-0.019,-0.0111,-0.0096,-0.0069,-0.0026,-0.0023,0.0047,0.0064,-0.0115,-0.0114,-0.0113,-0.0112,0,0,-0.0596,-0.0621,-0.0589,-0.0601,-0.0591,-0.0537,-0.0548,-0.051,-0.0453,-0.0422,-0.0413,-0.0293,-0.0233,-0.0151,-0.0154,-0.0128,-0.0078,-0.0116,-0.004,-0.0033,-0.0026,0.0042,0.0057,-0.0111,-0.011,-0.011,-0.011,0,-0.0571,-0.0565,-0.0589,-0.0571,-0.0548,-0.0515,-0.0517,-0.0472,-0.0446,-0.041,-0.0354,-0.0297,-0.0229,-0.0162,-0.0121,-0.0121,-0.0053,-0.012,-0.013,-0.0036,-0.003,-0.0024,0.0043,0.0056,-0.0107,-0.0108,-0.0108,0,-0.0528,-0.0518,-0.0524,-0.0508,-0.0486,-0.0479,-0.0436,-0.0426,-0.0411,-0.0336,-0.0305,-0.0257,-0.0182,-0.014,-0.0118,-0.0097,-0.0015,-0.0059,-0.0063,-0.0057,0.0042,0.0048,0.0054,-0.001,-0.001,-0.001,0,0,-0.0509,-0.0522,-0.0485,-0.0498,-0.0489,-0.0445,-0.0432,-0.0408,-0.0364,-0.0347,-0.0293,-0.0236,-0.0186,-0.015,-0.0108,-0.0062,-0.0003,-0.005,-0.0054,-0.0058,-0.0055,0.0042,0.0048,-0.001,-0.001,-0.001,0,0,-0.0492,-0.0469,-0.0458,-0.0472,-0.0445,-0.0394,-0.0395,-0.0368,-0.0328,-0.0326,-0.0252,-0.0234,-0.0197,-0.0151,-0.0155,-0.0091,-0.0069,-0.0066,-0.0118,-0.0123,-0.0127,-0.0136,-0.0105,0,0,0,0,0,-0.0452,-0.0474,-0.0465,-0.0462,-0.0429,-0.0402,-0.0395,-0.0359,-0.0344,-0.0346,-0.0292,-0.0254,-0.014,-0.0143,-0.0126,-0.012,-0.0006,-0.0007,-0.0007,-0.0065,-0.0071,-0.0075,0,0,0,0,0,0,-0.0451,-0.0449,-0.0463,-0.0418,-0.0409,-0.0402,-0.0368,-0.0358,-0.0344,-0.034,-0.0266,-0.0252,-0.0202,-0.0147,-0.0133,-0.0129,-0.0109,-0.0007,-0.0007,-0.0007,-0.0067,-0.0071,-0.0076,0,0,0,0,0,-0.045,-0.0448,-0.0413,-0.0416,-0.0409,-0.0363,-0.0368,-0.036,-0.0348,-0.0272,-0.0259,-0.0323,-0.0204,-0.0188,-0.0138,-0.0136,-0.0118,-0.0114,-0.0007,-0.0007,-0.0008,-0.0069,0,0,0,0,0,0,-0.0448,-0.0432,-0.041,-0.0405,-0.0415,-0.0362,-0.0356,-0.0361,-0.028,-0.0268,-0.0325,-0.0323,-0.0205,-0.0192,-0.018,-0.0143,-0.0126,-0.0121,-0.0118,-0.0007,-0.0007,-0.0008,0,0,0,0,0,0,-0.0433,-0.0429,-0.0407,-0.0408,-0.0403,-0.0362,-0.0357,-0.0306,-0.0278,-0.0337,-0.0333,-0.0325,-0.021,-0.0195,-0.0185,-0.0108,-0.0132,-0.0127,-0.0124,-0.0121,-0.0007,-0.0008,0,0,0,0,0,0,-0.043,-0.0426,-0.0409,-0.0405,-0.0401,-0.0342,-0.0314,-0.0276,-0.0305,-0.034,-0.0304,-0.0303,-0.0213,-0.0203,-0.0189,-0.0117,-0.0111,-0.0132,-0.0128,-0.0126,-0.0124,0,0,0,0,0,0,0,-0.0427,-0.0467,-0.044,-0.0403,-0.0399,-0.036,-0.0358,-0.0357,-0.0305,-0.0304,-0.0304,-0.0304,-0.016,-0.0154,-0.0149,-0.0124,0,0,-0.0132,-0.013,0,0,0,0,0,0,0,0,-0.0467,-0.0467,-0.044,-0.0439,-0.0438,-0.0359,-0.0358,-0.0357,-0.0305,-0.0304,-0.0304,-0.0304,-0.0158,-0.0154,-0.0149,0,0,0,0,0,0,0,0,0,0,0,0,0,0,0,-0.044,-0.0439,0,-0.0359,-0.0358,-0.0357,-0.0305,-0.0304,-0.0304,-0.0304,-0.0157,-0.0153,-0.015,0,0,0,0,0,0,0,0,0,0,0,0,0,0,0,0,0,0,0,0,0,0,0,0,0,0,0,0,0,0,0,0,0,0,0,0,0,0,0,0,0,0,0,0,0,0,0,0,0,0,0,0,0,0,0,0,0,0,0,0,0,0,0,0,0,0,0,0,0]}]]]